ALOS-2                  
1 39766U 14029A   19265.80581165 -.00000119  00000-0 -90207-5 0  9990
2 39766  97.9225   1.2582 0001467  89.5177 270.6213 14.79469833287978
UNIFORM 1               
1 39767U 14029B   19265.81523407  .00000079  00000-0  15992-4 0  9997
2 39767  97.8557 358.9211 0006576 108.8539 251.3392 14.83748803288674
SOCRATES                
1 39768U 14029C   19265.32075371  .00000086  00000-0  16572-4 0  9999
2 39768  97.8657   0.9423 0007256 135.3051 224.8759 14.84375643288722
RISING 2                
1 39769U 14029D   19265.76903080  .00000071  00000-0  15506-4 0  9995
2 39769  97.8494 354.9749 0005591  95.7742 264.4113 14.82085904288394
SPROUT                  
1 39770U 14029E   19265.83278760  .00000437  00000-0  54409-4 0  9996
2 39770  97.8884   8.5251 0009485 125.4925 234.7154 14.87426169289123
H-2A R/B                
1 39771U 14029F   19265.13946683 -.00000095  00000-0 -29379-5 0  9997
2 39771  98.2529 107.2434 0018069  53.3250 306.9626 14.93598210290451